Showing default

WNISAT 1R, 42835

Orbit data source: Space-Track

WNISAT 1R, 42835 is a payload satellite owned by WNI (JP) in SSO that was launched on Fri, 14 Jul 2017 UTC via a SOYUZ-2-1A launch vehicle from the Tyuratam Missile And Space Complex (TTMTR). Payload-class satellites include a variety of spacecraft equipped with specific instruments for various scientific and technological missions. These include communications satellites like Starlink; space stations such as the ISS; scientific satellites like the Hubble; Earth observation satellites from companies like Planet Labs, Umbra, and HawkEye 360; GPS; miniature CubeSats for education and research; and military/defense satellites.

Loading next visibility...
Identifier
42835, 2017-042L
Orbit
SSO
Country
Flag of JPJP / JPN
Related business
Manufacturer
AXELSPACE
Mission
Operational Commercial Weather
Bus & Motor
HODOYOSHI, Unknown motor
Mass
40 kg wet, 40 kg dry
Launch date (UTC)
2017-07-14 (9 years ago)
Launch vehicle
SOYUZ-2-1A
Launch site
Tyuratam Missile And Space Complex (TTMTR)
Object type
Payload
Rocket body
Debris
Shape & HBR
Box + 2 Pan, 0.8 m
Radar Cross Section
0.514 m², Medium (>0.1 m² and < 1m²)

Expand to show TLE details & history
Last TLE update: 5 hours ago

TLE from 5 hours ago
0 WNISAT 1R
1 42835U 17042L   26170.15745089  .00001744  00000-0  13819-3 0  9992
2 42835  97.4836 326.2092 0011329 141.1831 219.0210 15.01769530486808
Epoch: 2026-06-19T03:46Z
TLE epoch observation values (Epoch: 2026-06-19T03:46:43.756Z)
Latitude
-0.00004°
Longitude
2.13643°
Altitude
570.616 km
Speed
7.572 km/s
True Right ascension
21h 44m 50s
True Declination
0° 00' 00"
Sunlit
Object was in full shadow at epoch
Visualization orbit readout
Latitude
Unknown
Longitude
Unknown
Altitude
Unknown
Speed
Unknown
Apparent Right ascension
Unknown
Apparent Declination
Unknown
Sunlit
N/A
Visualization observer readout
Local Sidereal Time
19:14:30
Azimuth
Unknown
Elevation
Unknown
Doppler factor
Unknown
Orbital elements
Apogee altitude
566.292 km
Perigee altitude
550.575 km
Semi-major axis
6,936.57 km
Eccentricity
0.00113
Inclination
97.4836°
RAAN
326.2092°
Arg. of periapsis
141.1831°
True anomaly
218.93935°
Mean anomaly
219.021°
Eccentric anomaly
218.98017°
Mean motion
3.75687 °/min
Orbital period
95.82 mins
BSTAR
0.00013819
Loading maneuver chart data...
Computing Atmospheric mass density...

Documentation

Showing up to 5 results
|